FREGAT R/B

Last updated on Mon Sep 15 2025 00:02:08 GMT+0000 (Coordinated Universal Time)

1 65591U 25206C 25256.15803299 -.00000057 00000+0 00000+0 0 9999 2 65591 64.7973 324.6194 0063593 269.3577 89.9798 2.14914099 18
UTC large
Height (km)
Speed (km/s)
/
Latitude / Longitude
Inclination (degrees)
Orbital Period (minutes)
Azimuth
Elevation
Range (km)
Doppler Factor

Next 0 passes for location: London (51.5072 / 0.1276)

Sorry there are no passes over London.